Kansas City International, MO

12:59 AM CDT on April 24, 2018 (GMT -0500)
Kansas City International

Weather History for KMCI - May, 2013

Change the Weather History Date:

Tuesday, May 28, 2013

  Actual Average Record
Temperature  
Mean Temperature 72 °F 68 °F  
Max Temperature 80 °F 78 °F 93 °F (2006)
Min Temperature 63 °F 58 °F 38 °F (1947)
Degree Days  
Heating Degree Days 0 2  
Month to date heating degree days 156 101  
Since 1 July heating degree days 5185 5121  
Cooling Degree Days 7 5  
Month to date cooling degree days 79 72  
Year to date cooling degree days 92 100  
Growing Degree Days 23 (Base 50)    
Moisture  
Dew Point 66 °F    
Average Humidity 77    
Maximum Humidity 84    
Minimum Humidity 69    
Precipitation  
Precipitation 0.03 in 0.17 in 1.71 in (1975)
Month to date precipitation 5.20 4.73  
Year to date precipitation 13.67 13.33  
Snow  
Snow 0.00 in 0.00 in 0.00 in ()
Month to date snowfall 0.5 0.0  
Since 1 July snowfall 31.8 18.8  
Snow Depth 0.00 in    
Sea Level Pressure  
Sea Level Pressure 29.71 in    
Wind  
Wind Speed 13 mph (South)    
Max Wind Speed 25 mph    
Max Gust Speed 31 mph    
Visibility 10 miles    
Events Rain , Thunderstorm    
T = Trace of Precipitation, MM = Missing Value Source: NWS Daily Summary

Daily Weather History Graph

Daily Weather History Graph

Search for Another Location

Airport or City:

Astronomy

May. 28, 2013 Rise Set
Actual Time 5:55 AM CDT 8:36 PM CDT
Civil Twilight 5:24 AM CDT 9:08 PM CDT
Nautical Twilight 4:45 AM CDT 9:47 PM CDT
Astronomical Twilight 4:01 AM CDT 10:32 PM CDT
Moon No Moon Rise 9:44 AM CDT (5/28)
Length of Visible Light 15h 43m
Length of Day
14h 40m
Waning Gibbous, 82% of the Moon is Illuminated
May 28
Waning Gibbous
May 31
Last Quarter
Jun 8
New
Jun 16
First Quarter
Jun 23
Full

Hourly Weather History & Observations

Time (CDT) Temp. Dew Point Humidity Pressure Visibility Wind Dir Wind Speed Gust Speed Precip Events Conditions
12:53 AM 75.0 °F 64.9 °F 71% 29.63 in 10.0 mi SSW 24.2 mph 33.4 mph N/A   Overcast
1:38 AM 73.4 °F 64.4 °F 73% 29.70 in 9.0 mi WSW 9.2 mph - N/A   Overcast
1:53 AM 73.9 °F 66.0 °F 76% 29.66 in 10.0 mi SW 8.1 mph - N/A Rain Light Rain
2:13 AM 73.4 °F 64.4 °F 73% 29.69 in 10.0 mi SSW 9.2 mph - 0.00 in   Light Drizzle
2:53 AM 73.0 °F 66.0 °F 79% 29.67 in 10.0 mi SSW 13.8 mph - 0.00 in   Overcast
3:53 AM 73.9 °F 64.9 °F 73% 29.67 in 10.0 mi SSW 9.2 mph - N/A   Overcast
4:53 AM 73.0 °F 64.9 °F 76% 29.68 in 10.0 mi South 10.4 mph - N/A   Overcast
5:53 AM 73.0 °F 64.9 °F 76% 29.68 in 10.0 mi SSW 15.0 mph - N/A   Overcast
6:53 AM 73.0 °F 66.0 °F 79% 29.69 in 10.0 mi South 15.0 mph - N/A   Overcast
7:53 AM 72.0 °F 66.0 °F 81% 29.71 in 10.0 mi SSW 9.2 mph - N/A   Overcast
8:48 AM 73.4 °F 66.2 °F 78% 29.73 in 10.0 mi South 16.1 mph - N/A   Overcast
8:53 AM 73.0 °F 66.0 °F 79% 29.70 in 10.0 mi South 13.8 mph - N/A   Mostly Cloudy
9:53 AM 77.0 °F 66.9 °F 71% 29.68 in 10.0 mi South 18.4 mph 25.3 mph N/A   Partly Cloudy
10:16 AM 78.8 °F 68.0 °F 69% 29.71 in 10.0 mi SSW 19.6 mph 25.3 mph N/A   Mostly Cloudy
10:53 AM 77.0 °F 68.0 °F 74% 29.68 in 10.0 mi SSW 17.3 mph 26.5 mph N/A   Mostly Cloudy
11:53 AM 79.0 °F 70.0 °F 74% 29.68 in 9.0 mi South 15.0 mph - N/A   Mostly Cloudy
12:53 PM 75.9 °F 69.1 °F 79% 29.70 in 9.0 mi South 6.9 mph - 0.00 in Rain Light Rain
1:53 PM 75.0 °F 68.0 °F 79% 29.72 in 9.0 mi SSW 13.8 mph - 0.00 in Rain Light Rain
2:53 PM 77.0 °F 69.1 °F 76% 29.71 in 10.0 mi SSW 18.4 mph 23.0 mph 0.00 in   Overcast
3:53 PM 75.0 °F 69.1 °F 82% 29.72 in 8.0 mi South 11.5 mph - N/A   Overcast
4:53 PM 77.0 °F 70.0 °F 79% 29.69 in 9.0 mi South 10.4 mph 20.7 mph N/A   Overcast
5:04 PM 77.0 °F 69.8 °F 78% 29.73 in 10.0 mi South 15.0 mph 24.2 mph N/A   Overcast
5:53 PM 75.9 °F 69.1 °F 79% 29.70 in 10.0 mi South 12.7 mph - N/A   Overcast
6:35 PM 75.2 °F 68.0 °F 78% 29.71 in 10.0 mi SSE 15.0 mph - N/A   Overcast
6:53 PM 75.0 °F 68.0 °F 79% 29.69 in 10.0 mi SSE 12.7 mph - N/A   Overcast
7:53 PM 75.0 °F 66.9 °F 76% 29.72 in 10.0 mi South 15.0 mph 23.0 mph N/A   Overcast
8:53 PM 75.0 °F 64.9 °F 71% 29.74 in 10.0 mi South 16.1 mph - N/A   Overcast
9:42 PM 71.6 °F 66.2 °F 83% 29.78 in 8.0 mi South 12.7 mph - 0.00 in Rain , Thunderstorm Light Thunderstorms and Rain
9:53 PM 72.0 °F 66.9 °F 84% 29.76 in 6.0 mi South 12.7 mph - 0.01 in Rain , Thunderstorm Light Thunderstorms and Rain
10:51 PM 68.0 °F 60.8 °F 78% 29.86 in 10.0 mi North 13.8 mph 26.5 mph N/A Rain Light Rain
10:53 PM 66.0 °F 57.9 °F 75% 29.83 in 10.0 mi North 16.1 mph 26.5 mph N/A Rain Light Rain
11:53 PM 64.0 °F 59.0 °F 84% 29.83 in 10.0 mi ENE 10.4 mph - 0.00 in Rain Light Rain